Regional Weather Roundup
Issued by NWS Bismarck, ND

Home | Current Version | Previous Version | Text Only | Print | Product List | Glossary On
Versions: 1 2 3 4 5 6 7 8 9 10 11 12 13 14 15 16 17 18 19 20 21 22 23 24 25 26 27 28 29 30 31 32 33 34 35 36 37 38 39 40 41 42 43 44 45 46 47 48 49 50
000
ASUS43 KBIS 230510
RWRBIS

NWR BROADCAST TEXT
NATIONAL WEATHER SERVICE BISMARCK ND
1200 AM CDT TUE SEP 23 2014

NOTE: "FAIR" INDICATES FEW OR NO CLOUDS BELOW 12,000 FEET WITH NO
SIGNIFICANT WEATHER AND/OR OBSTRUCTIONS TO VISIBILITY.


CITY           SKY/WX    TMP DP  RH WIND       PRES   REMARKS
WILLISTON      CLEAR     61  49  64 CALM      29.87F
MINOT          CLEAR     55  47  74 E7        29.91F
MINOT AFB      CLEAR     54  50  85 SE5       29.90F
BISMARCK       CLEAR     60  50  69 SE9       29.94S
DICKINSON      CLEAR     59  49  69 SE13      29.88F
GARRISON         N/A     58  51  78 SE6       29.92F
HETTINGER ARPT PTCLDY    59  51  75 SE8       29.91S
JAMESTOWN      CLEAR     59  49  69 S12       30.00F
BEACH            N/A     54  50  87 SE5       29.88F
CARRINGTON     FAIR      59  50  72 S13       30.00S
CROSBY           N/A     61  52  72 S13       29.88F
HARVEY         FAIR      55  48  76 SE6       29.96F
HAZEN          FAIR      57  48  72 NE7       29.91F
LINTON         FAIR      63  52  67 SE14      29.95F
MANDAN         FAIR      63  50  63 SE12      29.95S
OAKES            N/A     59  50  72 S12       30.03F
RUGBY          FAIR      61  48  63 SE12      29.95F
STANLEY        FAIR      55  50  82 CALM      29.91F
TIOGA          FAIR      59  48  67 SE9       29.93S
WATFORD CITY   FAIR      55  48  76 E3        29.86F
$$

CITY           SKY/WX    TMP DP  RH WIND       PRES   REMARKS
GRAND FORKS    CLEAR     52  48  86 S6        30.03S
GRAND FORKS AF CLEAR     55  49  80 S8        30.03S
DEVILS LAKE    CLEAR     57  48  72 SE9       29.98F
FARGO          CLEAR     61  48  62 SE10      30.05F
CANDO          FAIR      54  48  82 SE8       29.99F
CAVALIER       FAIR      54  46  76 S5        30.02S
GRAFTON        FAIR      52  48  87 SE8       30.02S
GWINNER        CLEAR     57  48  72 S8        30.05F
LANGDON        FAIR      57  46  67 S10       30.01S
ROLLA          FAIR      54  48  82 S5        30.00S
WALHALLA         N/A     54  50  87 SE6       30.01S
$$

CITY           SKY/WX    TMP DP  RH WIND       PRES   REMARKS
ABERDEEN       PTCLDY    62  50  64 S12       30.04S
MOBRIDGE       PTCLDY    65  54  67 S15       29.93F
BUFFALO          N/A     62  50  64 SE10      29.84S
RAPID CITY     CLOUDY    60  54  80 CALM      29.94F
GLASGOW        CLEAR     61  47  59 SE5       29.83S
SIDNEY         CLEAR     55  46  71 CALM      29.87S
WOLF POINT     CLEAR     59  49  69 NE3       29.84S
GLENDIVE       CLEAR     57  48  72 NE6       29.86F
MILES CITY     PTCLDY    58  47  66 NW9       29.85S
BAKER          PTCLDY    57  50  77 E6        29.89S
$$

CITY           SKY/WX    TMP DP  RH WIND       PRES   REMARKS
BILLINGS       PTCLDY    68  46  45 SW9       29.94S
GREAT FALLS    MOCLDY    64  49  57 SW10      29.93R
REGINA         CLEAR     57  46  67 SE12      29.85S
ESTEVAN        CLEAR     54  48  82 SE6       29.89S
$$




USA.gov is the U.S. government's official web portal to all federal, state and local government web resources and services.